[[{"header":{"parameterUnit":"m.s-1","parameterCategory":2,"la1":30.2991,"la2":30.254,"lo1":-89.0895,"lo2":-89.0444,"dx":0.0017,"dy":0.0017,"nx":28,"ny":28,"refTime":"2022-12-05T15:00:00:Z","depth":"0","parameterNumber":2,"parameterNumberName":"U-component_of_CURRENTS"},"data":[0,0,0,0,0,0,0,0,0,0,0,0,0,0,0,0,0,0,0,0,0,0,0,0,0,0,0,0,0,0,0,0,0,0,0,0,0,0,0,0,0,0,0,0,0,0,0,0,0,0,0,0,0,0,0,0,0,0,-0.332,-0.3324,0,-0.3679,-0.3683,-0.3686,-0.3691,-0.3687,-0.3683,-0.3679,-0.3649,-0.3652,-0.3655,0,0,0,0,0,0,0,0,0,0,0,0,0,-0.285,-0.2856,-0.332,-0.3325,-0.3329,-0.3678,-0.3683,-0.3687,-0.3692,-0.3687,-0.3682,-0.3677,-0.3648,-0.3652,-0.3655,0,0,0,0,0,0,0,0,0,0,0,0,0,-0.3111,-0.2859,-0.3319,-0.3377,-0.3386,-0.3677,-0.3683,-0.3689,-0.3693,-0.3687,-0.3681,-0.3675,-0.3647,-0.3651,-0.3656,-0.3809,0,0,-0.367,-0.3672,0,0,0,0,0,0,0,0,-0.3096,-0.3128,-0.3364,-0.3373,-0.3384,-0.3638,-0.3507,-0.3711,-0.3695,-0.3572,-0.3679,-0.3672,-0.3617,-0.3624,-0.3704,-0.3808,-0.3806,-0.367,-0.3673,-0.3675,-0.3677,0,0,0,0,0,0,0,-0.3078,-0.3114,-0.3458,-0.3369,-0.3382,-0.3458,-0.3486,-0.3548,-0.3614,-0.3582,-0.3585,-0.3633,-0.3618,-0.37,-0.3702,-0.3806,-0.367,-0.3674,-0.3677,-0.3679,-0.3928,-0.3931,0,0,0,0,0,0,-0.304,-0.3097,-0.3446,-0.3469,-0.3227,-0.3471,-0.3502,-0.3559,-0.3622,-0.3631,-0.3638,-0.3632,-0.3696,-0.3697,-0.3701,-0.3704,-0.3675,-0.368,-0.3682,-0.3924,-0.3929,-0.3933,0,0,0,0,0,0,-0.3028,-0.3068,-0.3432,-0.3293,-0.3344,-0.3484,-0.355,-0.357,-0.3623,-0.367,-0.3668,-0.3666,-0.3691,-0.3694,-0.3764,-0.3707,-0.3682,-0.3686,-0.3919,-0.3925,-0.3931,-0.3823,0,0,0,0,0,0,-0.3013,-0.3062,-0.3083,-0.3291,-0.3351,-0.3563,-0.3557,-0.3581,-0.3666,-0.366,-0.3694,-0.3688,-0.3686,-0.3758,-0.3769,-0.3713,-0.3689,-0.3915,-0.3922,-0.3929,-0.3822,-0.3825,-0.3827,0,0,0,0,0,-0.2995,-0.3031,-0.3082,-0.3124,-0.3378,-0.3565,-0.3602,-0.3678,-0.3673,-0.3701,-0.3751,-0.3685,-0.3809,-0.3768,-0.3779,-0.3721,-0.3911,-0.392,-0.3928,-0.3821,-0.3824,-0.3827,0,0,0,0,0,0,-0.2824,-0.3043,-0.3101,-0.3197,-0.3356,-0.3565,-0.3607,-0.3685,-0.3766,-0.3735,-0.3764,-0.3766,-0.38,-0.3828,-0.3781,-0.3831,-0.3839,-0.385,-0.3753,-0.3757,-0.3759,-0.3662,-0.3693,0,0,0,0,0,-0.2811,-0.2888,-0.3113,-0.3183,-0.3261,-0.3443,-0.3526,-0.3592,-0.3706,-0.3735,-0.3776,-0.3819,-0.3867,-0.3858,-0.392,-0.3963,-0.3856,-0.3938,-0.394,-0.3941,-0.3882,-0.3682,-0.3654,-0.3961,-0.3961,-0.3961,0,0,-0.2763,-0.2893,-0.2935,-0.3153,-0.3277,-0.3395,-0.3473,-0.3591,-0.365,-0.3717,-0.3778,-0.3842,-0.3898,-0.3936,-0.3947,-0.3925,-0.3816,-0.3952,-0.395,-0.389,-0.3687,-0.3654,-0.3625,-0.3967,-0.3966,-0.3965,0,0,-0.2709,-0.2826,-0.2878,-0.3017,-0.3211,-0.3339,-0.3368,-0.358,-0.3617,-0.3742,-0.3781,-0.3802,-0.3929,-0.391,-0.3926,-0.3992,-0.3858,-0.4039,-0.3924,-0.3732,-0.3699,-0.367,-0.3523,-0.348,-0.4007,-0.4007,-0.4007,0,-0.264,-0.274,-0.2918,-0.3016,-0.3088,-0.3303,-0.3356,-0.3486,-0.368,-0.3657,-0.3724,-0.383,-0.3885,-0.3846,-0.3895,-0.3968,-0.387,-0.3885,-0.3714,-0.3683,-0.3653,-0.3509,-0.3463,-0.4003,-0.4003,-0.4004,-0.4004,0,-0.2647,-0.2724,-0.2764,-0.2947,-0.3053,-0.3138,-0.3335,-0.3401,-0.3484,-0.3569,-0.3576,-0.3698,-0.3712,-0.3766,-0.3864,-0.3716,-0.372,-0.3745,-0.3658,-0.3612,-0.347,-0.3423,-0.3997,-0.3998,-0.3999,-0.4,0,0,-0.2492,-0.2716,-0.2724,-0.2758,-0.3002,-0.308,-0.3158,-0.3244,-0.322,-0.3379,-0.3305,-0.3447,-0.3483,-0.3513,-0.3609,-0.3486,-0.3258,-0.3541,-0.3533,-0.331,-0.2841,-0.2843,-0.2793,-0.3231,-0.3222,-0.3215,-0.283,0,-0.2427,-0.2521,-0.2655,-0.2711,-0.2771,-0.2926,-0.2968,-0.3056,-0.3143,-0.315,-0.3199,-0.3226,-0.3401,-0.3406,-0.3314,-0.3326,-0.3129,-0.3361,-0.2994,-0.2983,-0.2915,-0.2736,-0.2697,-0.2348,-0.2784,-0.2776,-0.277,0,-0.2382,-0.2444,-0.2471,-0.2538,-0.2567,-0.2629,-0.2637,-0.2716,-0.2775,-0.2811,-0.282,-0.2927,-0.2892,-0.3017,-0.2834,-0.2982,-0.2871,-0.2831,-0.2813,-0.2798,-0.2895,-0.2471,-0.2246,-0.2295,-0.2698,-0.2704,-0.2709,0,-0.2171,-0.2289,-0.2267,-0.2322,-0.247,-0.2433,-0.2493,-0.2568,-0.2568,-0.2601,-0.2586,-0.2579,-0.2592,-0.2463,-0.2538,-0.2629,-0.2282,-0.2368,-0.2207,-0.2209,-0.2089,-0.2095,-0.1778,-0.2026,-0.2027,-0.2028,-0.2029,0,-0.2056,-0.2039,-0.2165,-0.2178,-0.2104,-0.2254,-0.2176,-0.2241,-0.2274,-0.2244,-0.2407,-0.2391,-0.2446,-0.2365,-0.2354,-0.2176,-0.2098,-0.2098,-0.206,-0.2071,-0.2079,-0.2056,-0.2145,-0.2014,-0.2017,-0.202,-0.2022,0,-0.1871,-0.1961,-0.195,-0.2026,-0.2032,-0.1991,-0.2031,-0.199,-0.2057,-0.2025,-0.2026,-0.2163,-0.2101,-0.2115,-0.1927,-0.1928,-0.1729,-0.1662,-0.1724,-0.17,-0.1644,-0.1732,-0.1347,-0.1305,-0.1376,-0.1373,-0.137,0,-0.1789,-0.177,-0.1818,-0.1807,-0.1848,-0.1818,-0.18,-0.1868,-0.1856,-0.1908,-0.1876,-0.185,-0.1891,-0.1689,-0.1617,-0.1437,-0.1519,-0.1271,-0.1412,-0.1539,-0.1607,-0.1698,-0.17,-0.1221,-0.1218,-0.1215,-0.1212,0,-0.1624,-0.1644,-0.1648,-0.1631,-0.1615,-0.1585,-0.1583,-0.1534,-0.1616,-0.1612,-0.1649,-0.1681,-0.1585,-0.1491,-0.1306,-0.1223,-0.1317,-0.1205,-0.1253,-0.1353,-0.1498,-0.1479,-0.1644,-0.1187,-0.1189,-0.1191,-0.1192,-0.1193,-0.1482,-0.1452,-0.1469,-0.1435,-0.1426,-0.1391,-0.1325,-0.1335,-0.1299,-0.1293,-0.1424,-0.1424,-0.1388,-0.1187,-0.1117,-0.0988,-0.1049,-0.0982,-0.1041,-0.1093,-0.1148,-0.1293,-0.0879,-0.088,-0.0881,-0.0881,-0.0882,0,-0.132,-0.1315,-0.1278,-0.1256,-0.1213,-0.1257,-0.12,-0.1129,-0.1071,-0.1076,-0.1116,-0.1071,-0.1045,-0.1006,-0.0896,-0.0865,-0.0871,-0.0874,-0.098,-0.0959,-0.0964,-0.1064,-0.0771,-0.0771,-0.0771,-0.0771,-0.0771,-0.0771,-0.1246,-0.1177,-0.1172,-0.1066,-0.1056,-0.0969,-0.0929,-0.0844,-0.0798,-0.0686,-0.063,-0.0632,-0.0703,-0.0949,-0.0986,-0.0941,-0.0961,-0.0916,-0.0943,-0.1014,-0.1031,-0.1048,-0.1157,-0.0889,-0.0889,-0.0906,-0.0907,-0.0907]},{"header":{"parameterUnit":"m.s-1","parameterCategory":2,"la1":30.2991,"la2":30.254,"lo1":-89.0895,"lo2":-89.0444,"dx":0.0017,"dy":0.0017,"nx":28,"ny":28,"refTime":"2022-12-05T15:00:00:Z","depth":"0","parameterNumber":3,"parameterNumberName":"V-component_of_CURRENTS"},"data":[0,0,0,0,0,0,0,0,0,0,0,0,0,0,0,0,0,0,0,0,0,0,0,0,0,0,0,0,0,0,0,0,0,0,0,0,0,0,0,0,0,0,0,0,0,0,0,0,0,0,0,0,0,0,0,0,0,0,0.0489,0.0489,0,0.0501,0.0502,0.0503,0.0601,0.0602,0.0604,0.0605,0.0927,0.0933,0.0941,0,0,0,0,0,0,0,0,0,0,0,0,0,0.058,0.0578,0.0489,0.0489,0.0488,0.0501,0.0502,0.0504,0.06,0.0602,0.0604,0.0606,0.0924,0.0933,0.0941,0,0,0,0,0,0,0,0,0,0,0,0,0,0.057,0.0578,0.0489,0.0531,0.0534,0.0501,0.0502,0.0504,0.06,0.0602,0.0605,0.0607,0.0921,0.0932,0.0942,0.0963,0,0,0.0975,0.098,0,0,0,0,0,0,0,0,0.0571,0.0568,0.0525,0.0528,0.0531,0.0543,0.0651,0.0669,0.0599,0.0585,0.0605,0.0608,0.0819,0.0838,0.0845,0.0978,0.0992,0.0976,0.0983,0.0987,0.099,0,0,0,0,0,0,0,0.0571,0.0568,0.0504,0.0524,0.0527,0.0558,0.056,0.0655,0.0703,0.0587,0.0591,0.0576,0.0825,0.0834,0.0854,0.0997,0.0976,0.0985,0.0992,0.0996,0.1204,0.1203,0,0,0,0,0,0,0.0545,0.0568,0.0503,0.0503,0.0546,0.0554,0.0556,0.0545,0.0695,0.0714,0.0574,0.0581,0.0815,0.0841,0.0866,0.0886,0.0987,0.0997,0.1003,0.1205,0.1204,0.1203,0,0,0,0,0,0,0.0547,0.054,0.0503,0.0529,0.0525,0.0548,0.0536,0.0544,0.0545,0.068,0.0709,0.0565,0.0817,0.0851,0.0921,0.0901,0.1002,0.1012,0.1206,0.1205,0.1203,0.0937,0,0,0,0,0,0,0.055,0.0541,0.0529,0.0526,0.0522,0.0448,0.0533,0.0542,0.0528,0.0537,0.0682,0.0714,0.0822,0.0904,0.0932,0.0918,0.102,0.1207,0.1205,0.1204,0.0947,0.0927,0.091,0,0,0,0,0,0.0553,0.0503,0.0529,0.052,0.0504,0.0444,0.0444,0.0477,0.0525,0.0495,0.0599,0.071,0.0915,0.091,0.0944,0.0932,0.1208,0.1206,0.1204,0.0956,0.0931,0.091,0,0,0,0,0,0,0.0518,0.0507,0.0536,0.0483,0.0455,0.0456,0.0426,0.0455,0.0508,0.0532,0.0682,0.0719,0.0759,0.089,0.0881,0.0991,0.1087,0.1091,0.0887,0.0866,0.0847,0.0845,0.1029,0,0,0,0,0,0.0506,0.0479,0.0464,0.0417,0.0398,0.0415,0.0399,0.0414,0.045,0.0474,0.0568,0.0692,0.0775,0.0852,0.0929,0.1,0.1098,0.1024,0.1005,0.0988,0.1011,0.1164,0.1161,0.1196,0.1196,0.1196,0,0,0.0478,0.0466,0.0452,0.041,0.0399,0.0345,0.0412,0.0359,0.0333,0.0507,0.0512,0.0601,0.0767,0.0814,0.0854,0.0931,0.0999,0.0985,0.0969,0.1003,0.1162,0.1159,0.1156,0.1195,0.1195,0.1195,0,0,0.0388,0.0393,0.0341,0.0309,0.0269,0.0273,0.0248,0.0236,0.0253,0.0255,0.0372,0.0459,0.0579,0.07,0.0782,0.0724,0.0859,0.0746,0.0695,0.0839,0.0838,0.0838,0.0816,0.0817,0.0781,0.0781,0.078,0,0.036,0.03,0.0308,0.024,0.0212,0.0232,0.0166,0.0161,0.0176,0.0225,0.0227,0.044,0.0534,0.068,0.0626,0.0683,0.0733,0.0752,0.0812,0.0816,0.0822,0.0801,0.0806,0.0768,0.0769,0.077,0.0772,0,0.0233,0.0188,0.0137,0.0085,0.0049,-0.0019,-0.0024,-0.0032,-0.0003,0.0043,0.0139,0.0262,0.0435,0.0442,0.05,0.0601,0.0599,0.0725,0.0857,0.0801,0.0782,0.0791,0.0749,0.0754,0.0757,0.0761,0,0,0.0182,0.0078,0.0066,0.0033,-0.0029,-0.007,-0.0111,-0.0099,-0.0057,-0.0029,0.007,0.0151,0.0267,0.0368,0.0481,0.058,0.0558,0.064,0.0654,0.0591,0.0748,0.0757,0.0768,0.0696,0.07,0.0703,0.0666,0,0.0093,-0.004,-0.0064,-0.0174,-0.0234,-0.0214,-0.0242,-0.0216,-0.0155,-0.0064,0.01,0.0208,0.0232,0.0321,0.0416,0.0553,0.0595,0.0548,0.084,0.0845,0.0845,0.0788,0.0842,0.0822,0.0677,0.0679,0.068,0,0.0001,-0.0072,-0.0191,-0.0253,-0.0274,-0.0328,-0.0287,-0.0313,-0.0173,-0.0109,0.0062,0.02,0.0345,0.0382,0.0577,0.0542,0.0602,0.068,0.0686,0.0821,0.088,0.0891,0.0847,0.0992,0.0697,0.0695,0.0694,0,-0.0004,-0.0143,-0.0226,-0.0263,-0.0343,-0.0356,-0.0381,-0.0299,-0.0273,-0.0101,-0.0016,0.0201,0.0328,0.0471,0.0575,0.0595,0.0757,0.0851,0.0895,0.0889,0.1066,0.1074,0.1204,0.0978,0.0978,0.0979,0.0979,0,-0.0062,-0.0124,-0.0237,-0.0284,-0.0347,-0.039,-0.0388,-0.0361,-0.0269,-0.0204,-0.0025,0.0098,0.0363,0.0497,0.0577,0.0728,0.0773,0.0863,0.092,0.0956,0.0954,0.1203,0.126,0.0977,0.0977,0.0978,0.0978,0,-0.004,-0.0125,-0.0218,-0.0322,-0.0354,-0.0392,-0.0438,-0.0411,-0.0349,-0.0245,-0.019,0.0039,0.0187,0.0369,0.0597,0.0739,0.0973,0.0909,0.0833,0.0884,0.1122,0.1161,0.1357,0.1465,0.0996,0.0997,0.0998,0,-0.0039,-0.0094,-0.0227,-0.0275,-0.0327,-0.0394,-0.0421,-0.0433,-0.0409,-0.029,-0.023,-0.005,0.0075,0.0359,0.0622,0.078,0.0921,0.0982,0.1087,0.1129,0.1216,0.1236,0.1316,0.1134,0.1136,0.1137,0.1138,0,-0.0026,-0.007,-0.0142,-0.025,-0.0317,-0.0378,-0.0434,-0.0438,-0.0432,-0.0372,-0.0275,-0.0176,0.0098,0.0375,0.0617,0.076,0.1127,0.1016,0.1165,0.1414,0.1354,0.1486,0.1027,0.115,0.1149,0.1148,0.1147,0.1147,0.0008,-0.0031,-0.0132,-0.0223,-0.03,-0.036,-0.039,-0.043,-0.0436,-0.0372,-0.0337,-0.0242,0.0218,0.0588,0.0734,0.1208,0.1167,0.1399,0.1441,0.1454,0.1597,0.1065,0.1218,0.1217,0.1216,0.1216,0.1215,0,0.0023,-0.0029,-0.0102,-0.0222,-0.0289,-0.0335,-0.039,-0.0399,-0.0412,-0.0412,-0.0377,-0.0054,0.0357,0.0776,0.1428,0.165,0.174,0.1764,0.1848,0.1918,0.1555,0.1605,0.1727,0.1727,0.1727,0.1727,0.1727,0.1726,0.0027,-0.0043,-0.0089,-0.0199,-0.0265,-0.0331,-0.0354,-0.0352,-0.0371,-0.0287,-0.0204,-0.0119,0.0591,0.1409,0.1985,0.2058,0.2258,0.22,0.2298,0.2078,0.2048,0.202,0.2084,0.2306,0.2306,0.2689,0.2692,0.2695]}],[{"header":{"parameterUnit":"m.s-1","parameterCategory":2,"la1":30.2991,"la2":30.254,"lo1":-89.0895,"lo2":-89.0444,"dx":0.0017,"dy":0.0017,"nx":28,"ny":28,"refTime":"2022-12-05T15:00:00:Z","depth":"2","parameterNumber":2,"parameterNumberName":"U-component_of_CURRENTS"},"data":[0,0,0,0,0,0,0,0,0,0,0,0,0,0,0,0,0,0,0,0,0,0,0,0,0,0,0,0,0,0,0,0,0,0,0,0,0,0,0,0,0,0,0,0,0,0,0,0,0,0,0,0,0,0,0,0,0,0,-0.3089,-0.3089,0,-0.3098,-0.3098,-0.3098,-0.3093,-0.3093,-0.3093,-0.3093,-0.3015,-0.3013,-0.3011,0,0,0,0,0,0,0,0,0,0,0,0,0,-0.3027,-0.3028,-0.3089,-0.3089,-0.3089,-0.3098,-0.3098,-0.3098,-0.3093,-0.3093,-0.3093,-0.3092,-0.3015,-0.3013,-0.3011,0,0,0,0,0,0,0,0,0,0,0,0,0,-0.3047,-0.3028,-0.3089,-0.3088,-0.3088,-0.3098,-0.3098,-0.3098,-0.3093,-0.3093,-0.3093,-0.3092,-0.3016,-0.3013,-0.3011,-0.3001,0,0,-0.3002,-0.3001,0,0,0,0,0,0,0,0,-0.3045,-0.3049,-0.3088,-0.3088,-0.3088,-0.3094,-0.3048,-0.3061,-0.3094,-0.3091,-0.3093,-0.3092,-0.3034,-0.3029,-0.3033,-0.2997,-0.2994,-0.3002,-0.3,-0.2999,-0.2998,0,0,0,0,0,0,0,-0.3044,-0.3048,-0.3093,-0.3088,-0.3088,-0.3073,-0.3076,-0.305,-0.3063,-0.3091,-0.3091,-0.3092,-0.3033,-0.3036,-0.3031,-0.2993,-0.3002,-0.3,-0.2998,-0.2997,-0.2982,-0.2983,0,0,0,0,0,0,-0.3046,-0.3047,-0.3092,-0.3093,-0.3065,-0.3074,-0.3077,-0.3093,-0.3065,-0.3061,-0.3093,-0.3092,-0.3041,-0.3034,-0.3028,-0.3015,-0.2999,-0.2997,-0.2995,-0.298,-0.2982,-0.2983,0,0,0,0,0,0,-0.3045,-0.305,-0.3092,-0.3069,-0.3073,-0.3076,-0.3093,-0.3093,-0.3098,-0.3067,-0.3061,-0.3097,-0.304,-0.3032,-0.3028,-0.3012,-0.2995,-0.2993,-0.2979,-0.2981,-0.2983,-0.2988,0,0,0,0,0,0,-0.3043,-0.305,-0.3065,-0.307,-0.3075,-0.3104,-0.3093,-0.3093,-0.3099,-0.3098,-0.3069,-0.3061,-0.3039,-0.3033,-0.3025,-0.3008,-0.2991,-0.2977,-0.298,-0.2982,-0.2986,-0.299,-0.2993,0,0,0,0,0,-0.3041,-0.3059,-0.3066,-0.3072,-0.3095,-0.3105,-0.3106,-0.3106,-0.3099,-0.3107,-0.3099,-0.3062,-0.3042,-0.3032,-0.3023,-0.3004,-0.2976,-0.2979,-0.2982,-0.2985,-0.2989,-0.2993,0,0,0,0,0,0,-0.3031,-0.306,-0.3068,-0.3093,-0.3102,-0.3104,-0.3105,-0.3109,-0.311,-0.3102,-0.3078,-0.3071,-0.3065,-0.3045,-0.3034,-0.3013,-0.3002,-0.3004,-0.3008,-0.3012,-0.3015,-0.2979,-0.2988,0,0,0,0,0,-0.3039,-0.3063,-0.3082,-0.3098,-0.3101,-0.3105,-0.3109,-0.311,-0.3109,-0.3109,-0.3093,-0.3078,-0.3071,-0.3051,-0.3045,-0.3023,-0.2979,-0.301,-0.3013,-0.3015,-0.2985,-0.2961,-0.2958,-0.2993,-0.2993,-0.2992,0,0,-0.3037,-0.3056,-0.3069,-0.3098,-0.3098,-0.3098,-0.3106,-0.3109,-0.3104,-0.3097,-0.3085,-0.3092,-0.3076,-0.3065,-0.3057,-0.3039,-0.2978,-0.3019,-0.3021,-0.2988,-0.2963,-0.2959,-0.2956,-0.2994,-0.2994,-0.2994,0,0,-0.3025,-0.3061,-0.3067,-0.3075,-0.3083,-0.3094,-0.3097,-0.3104,-0.3104,-0.31,-0.3105,-0.3113,-0.3081,-0.3079,-0.3068,-0.3087,-0.3011,-0.308,-0.3041,-0.302,-0.3015,-0.3011,-0.2919,-0.2906,-0.3063,-0.3064,-0.3064,0,-0.3023,-0.3031,-0.3068,-0.3062,-0.3062,-0.3091,-0.3081,-0.3089,-0.3095,-0.3091,-0.3093,-0.3089,-0.3084,-0.3072,-0.3076,-0.3089,-0.3034,-0.3022,-0.3019,-0.3015,-0.301,-0.2917,-0.2903,-0.3064,-0.3064,-0.3064,-0.3064,0,-0.2998,-0.3008,-0.3005,-0.3018,-0.3031,-0.3027,-0.3044,-0.3055,-0.306,-0.3061,-0.3063,-0.3076,-0.3061,-0.3076,-0.3067,-0.3041,-0.2997,-0.3039,-0.2999,-0.3006,-0.2908,-0.2893,-0.3065,-0.3065,-0.3065,-0.3064,0,0,-0.2977,-0.299,-0.2987,-0.2984,-0.3004,-0.3011,-0.3013,-0.3023,-0.3017,-0.3027,-0.3007,-0.3021,-0.3025,-0.3015,-0.3028,-0.3005,-0.2929,-0.2987,-0.2985,-0.2873,-0.2807,-0.2683,-0.2654,-0.2962,-0.296,-0.2959,-0.2739,0,-0.2942,-0.2927,-0.2947,-0.2934,-0.2927,-0.2959,-0.2961,-0.2975,-0.2986,-0.2979,-0.2991,-0.2981,-0.3001,-0.2991,-0.2974,-0.2972,-0.2894,-0.298,-0.2834,-0.2828,-0.2701,-0.2636,-0.2488,-0.2272,-0.2724,-0.2722,-0.272,0,-0.2896,-0.2898,-0.2874,-0.2893,-0.2893,-0.2891,-0.2908,-0.2912,-0.2918,-0.2919,-0.2912,-0.292,-0.29,-0.2916,-0.2849,-0.2896,-0.2816,-0.2798,-0.279,-0.2655,-0.2676,-0.2347,-0.2228,-0.2695,-0.2697,-0.2699,-0.27,0,-0.2845,-0.2849,-0.2832,-0.2831,-0.2853,-0.2846,-0.2862,-0.288,-0.2879,-0.2866,-0.2854,-0.2848,-0.2833,-0.278,-0.2712,-0.2774,-0.2599,-0.2698,-0.2487,-0.2476,-0.2309,-0.2285,-0.2577,-0.2577,-0.2578,-0.2578,-0.2579,0,-0.2789,-0.2776,-0.2802,-0.2782,-0.2771,-0.2799,-0.2782,-0.28,-0.2805,-0.2795,-0.2804,-0.277,-0.2797,-0.271,-0.2653,-0.2486,-0.2538,-0.2427,-0.2405,-0.2304,-0.2284,-0.264,-0.265,-0.257,-0.2572,-0.2573,-0.2575,0,-0.2718,-0.273,-0.2717,-0.2735,-0.2735,-0.2722,-0.2733,-0.2734,-0.2736,-0.2718,-0.2704,-0.2694,-0.2585,-0.2533,-0.2434,-0.2392,-0.2267,-0.2166,-0.2001,-0.1964,-0.2172,-0.2186,-0.1957,-0.1951,-0.1945,-0.1941,-0.1937,0,-0.2679,-0.2662,-0.2675,-0.2663,-0.266,-0.2649,-0.2652,-0.2681,-0.2691,-0.2658,-0.2648,-0.2531,-0.2409,-0.2181,-0.2067,-0.1877,-0.2012,-0.1661,-0.178,-0.2103,-0.2106,-0.2129,-0.2149,-0.1544,-0.1537,-0.1532,-0.1528,0,-0.2606,-0.2614,-0.2603,-0.2589,-0.2582,-0.2583,-0.2591,-0.2586,-0.262,-0.2538,-0.2426,-0.2301,-0.2098,-0.1847,-0.1619,-0.1515,-0.1708,-0.1544,-0.1893,-0.1742,-0.1701,-0.171,-0.1745,-0.1479,-0.1484,-0.1487,-0.149,-0.1492,-0.2556,-0.254,-0.2531,-0.2506,-0.251,-0.2502,-0.2448,-0.2437,-0.2348,-0.2182,-0.2187,-0.1913,-0.185,-0.1417,-0.1258,-0.1153,-0.1302,-0.1298,-0.132,-0.1347,-0.1357,-0.1311,-0.1011,-0.1013,-0.1015,-0.1017,-0.1018,0,-0.2482,-0.2466,-0.2451,-0.2421,-0.2382,-0.2418,-0.2395,-0.2242,-0.2047,-0.1923,-0.1709,-0.1411,-0.1186,-0.1123,-0.0885,-0.0819,-0.0861,-0.0798,-0.0897,-0.0942,-0.0983,-0.0983,-0.0534,-0.0533,-0.0532,-0.0531,0,0,-0.2435,-0.2388,-0.2377,-0.2281,-0.2262,-0.2156,-0.2101,-0.1813,-0.165,-0.1306,-0.1147,-0.1106,-0.1114,-0.0865,-0.076,-0.0627,-0.0788,-0.0572,-0.0954,-0.1118,-0.1159,-0.1249,-0.1294,0,0,0,0,0]},{"header":{"parameterUnit":"m.s-1","parameterCategory":2,"la1":30.2991,"la2":30.254,"lo1":-89.0895,"lo2":-89.0444,"dx":0.0017,"dy":0.0017,"nx":28,"ny":28,"refTime":"2022-12-05T15:00:00:Z","depth":"2","parameterNumber":3,"parameterNumberName":"V-component_of_CURRENTS"},"data":[0,0,0,0,0,0,0,0,0,0,0,0,0,0,0,0,0,0,0,0,0,0,0,0,0,0,0,0,0,0,0,0,0,0,0,0,0,0,0,0,0,0,0,0,0,0,0,0,0,0,0,0,0,0,0,0,0,0,0.0083,0.0085,0,0.0353,0.0357,0.0361,0.0561,0.0562,0.0563,0.0564,0.0916,0.0924,0.0932,0,0,0,0,0,0,0,0,0,0,0,0,0,-0.0114,-0.0111,0.0083,0.0085,0.0088,0.0353,0.0357,0.0362,0.0561,0.0562,0.0563,0.0564,0.0913,0.0923,0.0933,0,0,0,0,0,0,0,0,0,0,0,0,0,0.0053,-0.0111,0.0082,0.0213,0.0227,0.0352,0.0357,0.0363,0.056,0.0562,0.0563,0.0565,0.091,0.0922,0.0935,0.0983,0,0,0.0973,0.0979,0,0,0,0,0,0,0,0,0.0043,0.0061,0.0191,0.0204,0.022,0.0418,0.0417,0.0571,0.056,0.0442,0.0564,0.0565,0.075,0.0776,0.0834,0.1,0.1015,0.0974,0.0982,0.0988,0.0991,0,0,0,0,0,0,0,0.0031,0.0051,0.0198,0.0194,0.0211,0.0308,0.0333,0.0448,0.0593,0.0453,0.0466,0.0482,0.076,0.0822,0.0844,0.102,0.0974,0.0985,0.0993,0.0998,0.1359,0.1361,0,0,0,0,0,0,-0.0028,0.0039,0.019,0.0206,0.0124,0.0309,0.0338,0.0359,0.059,0.0624,0.0481,0.049,0.0799,0.0829,0.0857,0.0982,0.0987,0.0999,0.1007,0.1357,0.136,0.1362,0,0,0,0,0,0,-0.0033,-0.0017,0.0179,0.0122,0.0153,0.0309,0.0333,0.0364,0.0436,0.0609,0.0646,0.0522,0.0802,0.0839,0.0984,0.0995,0.1005,0.1017,0.1355,0.1358,0.1361,0.1198,0,0,0,0,0,0,-0.004,-0.002,-0.0006,0.0118,0.0153,0.0246,0.0332,0.0368,0.0439,0.0456,0.0656,0.069,0.0806,0.0964,0.0996,0.1013,0.1027,0.1352,0.1356,0.136,0.1201,0.1195,0.119,0,0,0,0,0,-0.0048,-0.0043,-0.0007,0.0012,0.0161,0.0245,0.0274,0.0396,0.0439,0.0468,0.0616,0.0684,0.1011,0.0976,0.1013,0.1033,0.135,0.1355,0.1359,0.1203,0.1196,0.119,0,0,0,0,0,0,-0.0116,-0.0019,0.0023,0.0059,0.0139,0.0276,0.031,0.0384,0.0523,0.0541,0.0708,0.0753,0.0886,0.0987,0.0944,0.1155,0.1193,0.1205,0.1061,0.1056,0.1051,0.0987,0.1037,0,0,0,0,0,-0.0134,-0.0105,-0.0003,0.0024,0.0052,0.0176,0.023,0.0303,0.0427,0.0491,0.0625,0.0782,0.0933,0.1011,0.115,0.1255,0.1299,0.1299,0.1293,0.1287,0.1266,0.133,0.1325,0.1376,0.1376,0.1376,0,0,-0.0151,-0.01,-0.0079,0.001,0.008,0.012,0.0215,0.0274,0.0325,0.0504,0.0617,0.0763,0.0959,0.1089,0.1157,0.1174,0.1298,0.1293,0.1286,0.1268,0.1334,0.1328,0.1323,0.1379,0.1379,0.1378,0,0,-0.0199,-0.0139,-0.0136,-0.0084,-0.0005,0.0075,0.008,0.0205,0.0281,0.0395,0.0551,0.0703,0.0904,0.1059,0.1163,0.1212,0.1265,0.1254,0.1175,0.1237,0.1231,0.1226,0.1256,0.1256,0.1251,0.1251,0.125,0,-0.0223,-0.0201,-0.0122,-0.0116,-0.0074,0.004,0.0054,0.0141,0.0302,0.0368,0.0406,0.0733,0.0895,0.1082,0.1109,0.1196,0.1212,0.1172,0.122,0.1217,0.1215,0.1247,0.1249,0.1243,0.1244,0.1245,0.1246,0,-0.0272,-0.0246,-0.025,-0.0196,-0.0144,-0.0116,-0.001,0.0061,0.0153,0.0252,0.0424,0.0638,0.0837,0.0915,0.1031,0.1125,0.1133,0.1194,0.121,0.1198,0.1236,0.1239,0.1233,0.1235,0.1238,0.1239,0,0,-0.0337,-0.0287,-0.0286,-0.0263,-0.0181,-0.0135,-0.0077,0.0038,0.0094,0.0233,0.0303,0.0585,0.0683,0.0807,0.0972,0.103,0.1048,0.108,0.1087,0.1061,0.1132,0.1044,0.1041,0.1084,0.1085,0.1085,0.1154,0,-0.0388,-0.039,-0.0347,-0.0323,-0.0304,-0.0198,-0.0142,-0.0032,0.0074,0.0157,0.035,0.0501,0.0647,0.0747,0.0821,0.0992,0.1053,0.1021,0.1191,0.1196,0.1078,0.1042,0.1,0.1048,0.1158,0.1159,0.1159,0,-0.0445,-0.0429,-0.0431,-0.0354,-0.0337,-0.031,-0.0189,-0.0121,0.0012,0.009,0.0226,0.0362,0.0525,0.0618,0.0852,0.0805,0.0954,0.1063,0.107,0.1042,0.1115,0.109,0.1053,0.1167,0.1167,0.1166,0.1165,0,-0.0509,-0.0476,-0.047,-0.0452,-0.0365,-0.0334,-0.0268,-0.014,-0.0067,0.0043,0.0081,0.0268,0.036,0.0541,0.0804,0.0812,0.0989,0.1053,0.1119,0.1115,0.1144,0.1139,0.1202,0.1202,0.1202,0.1202,0.1202,0,-0.0565,-0.0558,-0.0501,-0.0498,-0.0467,-0.0388,-0.0333,-0.0246,-0.0149,-0.01,0.0047,0.0084,0.0333,0.0481,0.0712,0.0899,0.0945,0.1074,0.1118,0.1086,0.1076,0.1245,0.1249,0.1205,0.1204,0.1204,0.1203,0,-0.0642,-0.0607,-0.0596,-0.0528,-0.0503,-0.0479,-0.0376,-0.0332,-0.0235,-0.0194,-0.0163,-0.0059,0.0094,0.0371,0.0642,0.0779,0.0997,0.1084,0.1001,0.1031,0.1093,0.1089,0.1096,0.1093,0.1091,0.1089,0.1087,0,-0.0683,-0.0691,-0.0638,-0.0628,-0.0605,-0.0549,-0.0511,-0.0386,-0.0352,-0.028,-0.0295,-0.017,-0.01,0.0211,0.0509,0.0844,0.0961,0.0966,0.0988,0.1034,0.1078,0.1078,0.1077,0.0981,0.0978,0.0976,0.0975,0,-0.0763,-0.0748,-0.0736,-0.0719,-0.0693,-0.0649,-0.0599,-0.0594,-0.0481,-0.0481,-0.0507,-0.0464,-0.0184,0.0068,0.0476,0.0675,0.0886,0.0927,0.1033,0.0982,0.0923,0.0967,0.0971,0.0957,0.0959,0.096,0.0961,0.0962,-0.0824,-0.0836,-0.0821,-0.0808,-0.0777,-0.0774,-0.0778,-0.0758,-0.0767,-0.0747,-0.0695,-0.059,-0.0305,0.02,0.0475,0.0747,0.0772,0.0867,0.0876,0.0886,0.0829,0.0765,0.0759,0.0759,0.076,0.076,0.0761,0,-0.0898,-0.09,-0.0903,-0.0896,-0.0909,-0.0837,-0.0847,-0.086,-0.0948,-0.0846,-0.0824,-0.0534,-0.0231,0.0141,0.0541,0.0727,0.0773,0.0754,0.0815,0.0828,0.0841,0.0785,0.0703,0.0703,0.0704,0.0704,0,0,-0.0934,-0.0974,-0.0978,-0.1028,-0.1006,-0.1022,-0.1042,-0.1063,-0.0997,-0.0966,-0.0816,-0.0595,-0.0179,0.009,0.0351,0.056,0.0639,0.0559,0.0581,0.0634,0.0645,0.0876,0.0799,0,0,0,0,0]}],[{"header":{"parameterUnit":"m.s-1","parameterCategory":2,"la1":30.2991,"la2":30.254,"lo1":-89.0895,"lo2":-89.0444,"dx":0.0017,"dy":0.0017,"nx":28,"ny":28,"refTime":"2022-12-05T15:00:00:Z","depth":"4","parameterNumber":2,"parameterNumberName":"U-component_of_CURRENTS"},"data":[0,0,0,0,0,0,0,0,0,0,0,0,0,0,0,0,0,0,0,0,0,0,0,0,0,0,0,0,0,0,0,0,0,0,0,0,0,0,0,0,0,0,0,0,0,0,0,0,0,0,0,0,0,0,0,0,0,0,-0.114,-0.1141,0,-0.1251,-0.1252,-0.1253,-0.1328,-0.1328,-0.1329,-0.1329,-0.1406,-0.1407,-0.1409,0,0,0,0,0,0,0,0,0,0,0,0,0,-0.1062,-0.1062,-0.114,-0.1141,-0.1142,-0.125,-0.1252,-0.1254,-0.1328,-0.1328,-0.1329,-0.1329,-0.1405,-0.1407,-0.1409,0,0,0,0,0,0,0,0,0,0,0,0,0,-0.1127,-0.1062,-0.1139,-0.1192,-0.1198,-0.125,-0.1252,-0.1254,-0.1328,-0.1328,-0.1329,-0.133,-0.1405,-0.1407,-0.1409,-0.1411,0,0,-0.1417,-0.1418,0,0,0,0,0,0,0,0,-0.1123,-0.113,-0.1183,-0.1188,-0.1195,-0.1275,-0.1253,-0.1304,-0.1327,-0.1279,-0.1329,-0.133,-0.1358,-0.1364,-0.1385,-0.1414,-0.1417,-0.1417,-0.1418,-0.142,-0.142,0,0,0,0,0,0,0,-0.1118,-0.1126,-0.1184,-0.1184,-0.1191,-0.1234,-0.1243,-0.1263,-0.1313,-0.1283,-0.1289,-0.13,-0.1361,-0.1383,-0.1387,-0.1419,-0.1417,-0.1419,-0.1421,-0.1422,-0.1544,-0.1546,0,0,0,0,0,0,-0.1099,-0.1121,-0.1181,-0.1188,-0.1159,-0.1234,-0.1245,-0.1249,-0.1314,-0.1325,-0.1299,-0.1303,-0.1378,-0.1385,-0.139,-0.1463,-0.142,-0.1422,-0.1423,-0.1542,-0.1544,-0.1546,0,0,0,0,0,0,-0.1096,-0.1103,-0.1176,-0.1157,-0.1169,-0.1234,-0.1239,-0.1251,-0.129,-0.1326,-0.1336,-0.1327,-0.1379,-0.1387,-0.1434,-0.1464,-0.1423,-0.1425,-0.154,-0.1543,-0.1545,-0.1565,0,0,0,0,0,0,-0.1094,-0.1101,-0.1114,-0.1155,-0.1169,-0.1213,-0.1239,-0.1253,-0.1294,-0.1301,-0.1353,-0.136,-0.138,-0.143,-0.1436,-0.1466,-0.1427,-0.1538,-0.1541,-0.1545,-0.1562,-0.1568,-0.1573,0,0,0,0,0,-0.109,-0.1097,-0.1113,-0.1122,-0.1179,-0.1213,-0.1225,-0.1274,-0.1295,-0.1312,-0.1358,-0.136,-0.1457,-0.1434,-0.144,-0.1472,-0.1536,-0.154,-0.1544,-0.1559,-0.1567,-0.1573,0,0,0,0,0,0,-0.1074,-0.1106,-0.1125,-0.1143,-0.1179,-0.1225,-0.1249,-0.1279,-0.133,-0.1344,-0.1376,-0.1386,-0.144,-0.1454,-0.1428,-0.152,-0.1499,-0.1505,-0.1509,-0.1516,-0.1521,-0.1506,-0.1429,0,0,0,0,0,-0.1073,-0.1086,-0.1123,-0.1141,-0.1154,-0.1204,-0.123,-0.1264,-0.1306,-0.1331,-0.1371,-0.1418,-0.1459,-0.1485,-0.1519,-0.1562,-0.1564,-0.1591,-0.1597,-0.1601,-0.1596,-0.1635,-0.1643,-0.156,-0.156,-0.156,0,0,-0.1076,-0.1093,-0.1105,-0.1139,-0.117,-0.1205,-0.1222,-0.1262,-0.1302,-0.1328,-0.1399,-0.1433,-0.1474,-0.1531,-0.1557,-0.1549,-0.1625,-0.1606,-0.161,-0.1602,-0.164,-0.1647,-0.1654,-0.1563,-0.1562,-0.1562,0,0,-0.1078,-0.1096,-0.1109,-0.1138,-0.1182,-0.1214,-0.1225,-0.1282,-0.1316,-0.138,-0.1414,-0.146,-0.1532,-0.1564,-0.1589,-0.1641,-0.1648,-0.167,-0.169,-0.1728,-0.1735,-0.174,-0.1741,-0.1747,-0.1678,-0.1678,-0.1678,0,-0.1078,-0.11,-0.1121,-0.1144,-0.1171,-0.1216,-0.1245,-0.1289,-0.1362,-0.1391,-0.1406,-0.1519,-0.1544,-0.1609,-0.1637,-0.165,-0.1671,-0.1658,-0.1733,-0.1739,-0.1744,-0.1744,-0.175,-0.1679,-0.1679,-0.1679,-0.1679,0,-0.1094,-0.1121,-0.1128,-0.1172,-0.1205,-0.1234,-0.1288,-0.1333,-0.1381,-0.143,-0.1505,-0.1548,-0.1611,-0.1637,-0.1656,-0.1719,-0.1719,-0.1728,-0.1708,-0.1753,-0.1751,-0.1757,-0.1681,-0.1681,-0.168,-0.168,0,0,-0.1054,-0.1124,-0.1126,-0.1153,-0.122,-0.1242,-0.1307,-0.1367,-0.1411,-0.1489,-0.1544,-0.1619,-0.1646,-0.1675,-0.1706,-0.1746,-0.1792,-0.1764,-0.1766,-0.175,-0.1868,-0.1691,-0.168,-0.1832,-0.1833,-0.1835,-0.1845,0,-0.1056,-0.1092,-0.1135,-0.1187,-0.121,-0.1271,-0.1323,-0.1392,-0.1454,-0.1522,-0.1577,-0.1643,-0.1661,-0.1695,-0.1739,-0.1788,-0.1813,-0.1787,-0.1839,-0.1839,-0.1665,-0.1682,-0.1839,-0.185,-0.1851,-0.1852,-0.1853,0,-0.1051,-0.1075,-0.1117,-0.1185,-0.1199,-0.1246,-0.1322,-0.1379,-0.148,-0.1528,-0.1605,-0.1659,-0.1731,-0.1734,-0.1824,-0.1819,-0.184,-0.1867,-0.1868,-0.1697,-0.1673,-0.1801,-0.1863,-0.1862,-0.1861,-0.1861,-0.186,0,-0.0995,-0.106,-0.1087,-0.1114,-0.1202,-0.1234,-0.1285,-0.1382,-0.1427,-0.1535,-0.1573,-0.1678,-0.1719,-0.1789,-0.1835,-0.1852,-0.1915,-0.1936,-0.1787,-0.1775,-0.1923,-0.1917,-0.1978,-0.1978,-0.1978,-0.1978,-0.1978,0,-0.0966,-0.099,-0.1065,-0.1082,-0.1122,-0.1197,-0.1251,-0.132,-0.1413,-0.1454,-0.1567,-0.1598,-0.1741,-0.1794,-0.1843,-0.1811,-0.1914,-0.1775,-0.1764,-0.193,-0.1925,-0.1925,-0.1919,-0.1978,-0.1978,-0.1978,-0.1978,0,-0.0908,-0.0957,-0.0997,-0.1077,-0.1101,-0.1132,-0.122,-0.1256,-0.1349,-0.1402,-0.1435,-0.1559,-0.1617,-0.1715,-0.1813,-0.1776,-0.1793,-0.1751,-0.1893,-0.1892,-0.163,-0.1625,-0.1595,-0.1589,-0.1584,-0.1579,-0.1575,0,-0.088,-0.0895,-0.0975,-0.0994,-0.1033,-0.1084,-0.1114,-0.1216,-0.1249,-0.135,-0.136,-0.1448,-0.1512,-0.1511,-0.1622,-0.167,-0.1659,-0.164,-0.1656,-0.1597,-0.1591,-0.1594,-0.1597,-0.1567,-0.1566,-0.1564,-0.1563,0,-0.0828,-0.0866,-0.0896,-0.0934,-0.0968,-0.0994,-0.1043,-0.1053,-0.115,-0.1237,-0.1255,-0.1288,-0.1329,-0.1413,-0.144,-0.1482,-0.1647,-0.1586,-0.1598,-0.1613,-0.1563,-0.1563,-0.1571,-0.1545,-0.1547,-0.1549,-0.155,0,-0.0789,-0.0796,-0.0838,-0.0865,-0.0894,-0.0888,-0.093,-0.0954,-0.0997,-0.1109,-0.1104,-0.1199,-0.1302,-0.131,-0.1343,-0.1355,-0.1355,-0.1325,-0.1351,-0.1372,-0.1293,-0.1197,-0.1043,0,0,0,0,0,-0.0745,-0.0742,-0.0762,-0.0777,-0.0797,-0.0811,-0.0871,-0.0916,-0.0995,-0.0972,-0.1039,-0.1072,-0.1104,-0.1165,-0.114,-0.1246,-0.1362,-0.1207,-0.1341,-0.1444,-0.1465,-0.1393,0,0,0,0,0,0,-0.0714,-0.0728,-0.0735,-0.0688,-0.0673,-0.0682,-0.0712,-0.0774,-0.0777,-0.0872,-0.0916,-0.0974,-0.1053,-0.1106,-0.1109,-0.1124,-0.1177,-0.127,-0.1266,-0.1432,-0.1451,-0.1468,-0.1402,0,0,0,0,0]},{"header":{"parameterUnit":"m.s-1","parameterCategory":2,"la1":30.2991,"la2":30.254,"lo1":-89.0895,"lo2":-89.0444,"dx":0.0017,"dy":0.0017,"nx":28,"ny":28,"refTime":"2022-12-05T15:00:00:Z","depth":"4","parameterNumber":3,"parameterNumberName":"V-component_of_CURRENTS"},"data":[0,0,0,0,0,0,0,0,0,0,0,0,0,0,0,0,0,0,0,0,0,0,0,0,0,0,0,0,0,0,0,0,0,0,0,0,0,0,0,0,0,0,0,0,0,0,0,0,0,0,0,0,0,0,0,0,0,0,-0.0521,-0.0521,0,-0.052,-0.052,-0.052,-0.0505,-0.0504,-0.0504,-0.0503,-0.0464,-0.0464,-0.0463,0,0,0,0,0,0,0,0,0,0,0,0,0,-0.0516,-0.0516,-0.0521,-0.0521,-0.0521,-0.052,-0.052,-0.052,-0.0505,-0.0504,-0.0503,-0.0503,-0.0464,-0.0464,-0.0463,0,0,0,0,0,0,0,0,0,0,0,0,0,-0.0518,-0.0516,-0.0521,-0.0512,-0.0511,-0.052,-0.052,-0.052,-0.0505,-0.0504,-0.0503,-0.0502,-0.0465,-0.0464,-0.0463,-0.0475,0,0,-0.0461,-0.046,0,0,0,0,0,0,0,0,-0.0518,-0.0519,-0.0513,-0.0512,-0.0511,-0.051,-0.0504,-0.0503,-0.0505,-0.0509,-0.0503,-0.0502,-0.0475,-0.0474,-0.0479,-0.0473,-0.0472,-0.0461,-0.046,-0.046,-0.046,0,0,0,0,0,0,0,-0.0518,-0.0519,-0.0522,-0.0513,-0.0512,-0.0509,-0.0509,-0.0504,-0.0498,-0.0509,-0.0507,-0.0504,-0.0475,-0.0479,-0.0477,-0.0471,-0.0461,-0.046,-0.0459,-0.0459,-0.0466,-0.0467,0,0,0,0,0,0,-0.0515,-0.0519,-0.0522,-0.0522,-0.0511,-0.051,-0.051,-0.0513,-0.0498,-0.0495,-0.0505,-0.0504,-0.0481,-0.0478,-0.0476,-0.0491,-0.046,-0.0459,-0.0459,-0.0466,-0.0466,-0.0467,0,0,0,0,0,0,-0.0515,-0.0516,-0.0522,-0.0519,-0.0519,-0.0511,-0.0514,-0.0513,-0.052,-0.0496,-0.0492,-0.0514,-0.048,-0.0477,-0.0482,-0.0489,-0.0459,-0.0458,-0.0465,-0.0466,-0.0467,-0.0519,0,0,0,0,0,0,-0.0515,-0.0516,-0.0529,-0.0519,-0.0519,-0.0534,-0.0515,-0.0514,-0.0519,-0.0517,-0.0502,-0.0497,-0.0479,-0.0484,-0.0481,-0.0487,-0.0457,-0.0464,-0.0465,-0.0467,-0.0516,-0.0521,-0.0526,0,0,0,0,0,-0.0515,-0.0531,-0.053,-0.0531,-0.0533,-0.0535,-0.0536,-0.0528,-0.052,-0.053,-0.0522,-0.0498,-0.0489,-0.0484,-0.0481,-0.0487,-0.0464,-0.0465,-0.0466,-0.0514,-0.052,-0.0526,0,0,0,0,0,0,-0.0531,-0.0531,-0.0529,-0.0543,-0.0542,-0.0532,-0.0541,-0.0535,-0.0539,-0.0542,-0.0514,-0.0509,-0.0515,-0.0497,-0.0492,-0.0492,-0.0469,-0.047,-0.0506,-0.0512,-0.0517,-0.0521,-0.0457,0,0,0,0,0,-0.0542,-0.0556,-0.055,-0.0562,-0.0563,-0.0556,-0.0559,-0.0557,-0.0552,-0.0553,-0.054,-0.0528,-0.052,-0.0514,-0.0508,-0.0512,-0.0453,-0.0511,-0.0516,-0.052,-0.0521,-0.0449,-0.0447,-0.0472,-0.0472,-0.0472,0,0,-0.0548,-0.0552,-0.0558,-0.0567,-0.0566,-0.0578,-0.0556,-0.0568,-0.0582,-0.0549,-0.0565,-0.055,-0.0527,-0.0532,-0.0532,-0.0516,-0.0477,-0.0522,-0.0525,-0.0524,-0.045,-0.0447,-0.0445,-0.0473,-0.0473,-0.0473,0,0,-0.0565,-0.0574,-0.0591,-0.0596,-0.0604,-0.0604,-0.0609,-0.0608,-0.0612,-0.0629,-0.0605,-0.0599,-0.0588,-0.0573,-0.0563,-0.0592,-0.051,-0.058,-0.0602,-0.0533,-0.0529,-0.0526,-0.0425,-0.0412,-0.0577,-0.0577,-0.0577,0,-0.0575,-0.0595,-0.0595,-0.0612,-0.0621,-0.0617,-0.0636,-0.0644,-0.0646,-0.0649,-0.0642,-0.0622,-0.061,-0.0601,-0.061,-0.0603,-0.053,-0.0583,-0.0537,-0.0533,-0.0528,-0.0425,-0.041,-0.058,-0.0579,-0.0579,-0.0579,0,-0.0597,-0.0621,-0.063,-0.0653,-0.0665,-0.0683,-0.069,-0.0706,-0.071,-0.0708,-0.0708,-0.0689,-0.0672,-0.0665,-0.0648,-0.0613,-0.0558,-0.0554,-0.052,-0.0529,-0.0419,-0.0403,-0.0583,-0.0582,-0.0582,-0.0581,0,0,-0.0605,-0.064,-0.0647,-0.0667,-0.0692,-0.0704,-0.0733,-0.0751,-0.077,-0.0763,-0.0768,-0.0756,-0.0733,-0.072,-0.069,-0.0631,-0.0539,-0.0577,-0.0572,-0.0471,-0.034,-0.0338,-0.0319,-0.0512,-0.051,-0.0509,-0.0266,0,-0.0625,-0.0668,-0.0681,-0.0725,-0.0747,-0.0758,-0.0785,-0.0802,-0.0814,-0.0821,-0.079,-0.0788,-0.0757,-0.0748,-0.0686,-0.0588,-0.0501,-0.0602,-0.0351,-0.0343,-0.0338,-0.0304,-0.0503,-0.0254,-0.025,-0.0247,-0.0245,0,-0.0646,-0.0675,-0.0721,-0.0767,-0.0777,-0.0807,-0.0851,-0.0871,-0.0879,-0.0883,-0.0865,-0.0838,-0.0774,-0.0747,-0.0553,-0.0609,-0.0475,-0.0384,-0.0372,-0.0345,-0.0313,-0.0249,-0.0214,-0.0217,-0.0219,-0.0221,-0.0223,0,-0.0654,-0.0705,-0.0747,-0.0762,-0.081,-0.0838,-0.0864,-0.0891,-0.0912,-0.0917,-0.0923,-0.0848,-0.0806,-0.0648,-0.048,-0.0497,-0.0242,-0.0244,-0.0102,-0.0098,-0.0148,-0.0154,-0.0078,-0.0078,-0.0079,-0.008,-0.008,0,-0.0669,-0.0705,-0.076,-0.0783,-0.084,-0.086,-0.0915,-0.0937,-0.0957,-0.0973,-0.095,-0.0934,-0.0776,-0.0631,-0.0464,-0.023,-0.0218,-0.0088,-0.0039,-0.0172,-0.0184,-0.0133,-0.0143,-0.007,-0.0072,-0.0074,-0.0076,0,-0.0671,-0.0705,-0.0757,-0.0819,-0.0847,-0.0885,-0.0948,-0.098,-0.1,-0.1017,-0.1014,-0.096,-0.0776,-0.0591,-0.0325,-0.0211,0.0006,0.0096,-0.003,0.0005,0.0112,0.0096,0.0284,0.0286,0.0288,0.0289,0.029,0,-0.0674,-0.0702,-0.0783,-0.0823,-0.0858,-0.0919,-0.0963,-0.1,-0.1022,-0.1027,-0.1022,-0.089,-0.0821,-0.0437,-0.0258,0.0081,0.0113,0.0232,0.0141,0.0118,0.0148,0.0129,0.0112,0.0293,0.0293,0.0294,0.0294,0,-0.0677,-0.071,-0.0752,-0.0834,-0.0895,-0.0955,-0.101,-0.1024,-0.1049,-0.1069,-0.1001,-0.086,-0.0653,-0.0417,-0.0155,0.0074,0.0142,0.025,0.0248,0.0164,0.0131,0.0154,0.0136,0.03,0.0299,0.0299,0.0298,0,-0.0678,-0.0708,-0.0769,-0.0836,-0.0912,-0.0967,-0.0999,-0.1008,-0.1022,-0.1014,-0.0982,-0.0813,-0.0717,-0.0414,-0.0178,0.0042,0.0086,0.0134,0.0138,0.0134,-0.0014,-0.0083,0.0079,0,0,0,0,0,-0.0672,-0.0704,-0.0768,-0.0842,-0.0915,-0.0961,-0.1021,-0.1041,-0.1057,-0.0999,-0.0988,-0.0799,-0.0505,-0.04,-0.0167,-0.0143,0.0126,0.0132,0.0184,0.0332,0.0325,0.0172,0,0,0,0,0,0,-0.0669,-0.0722,-0.0756,-0.083,-0.0881,-0.096,-0.0998,-0.1015,-0.0972,-0.0968,-0.0802,-0.0754,-0.045,-0.0619,-0.0165,-0.0107,-0.0047,0.0263,0.0268,0.0336,0.033,0.0324,0.0165,0,0,0,0,0]}]]